#timestamp,LO_Frequency,Hit,StdDev 
1455519615.9,286047001.4,N
1455519635.7,286047002.6,N
1455519655.5,286047001.2,N
1455519675.4,286046998.1,N
1455519695.2,286046997.5,N
1455519715.0,286046998.5,N
1455519715.9,286046998.5,N
1455519735.8,286047001.0,N
1455519755.6,286046999.4,N
1455519775.4,286046996.5,N
1455519795.3,286046997.0,N
1455519815.1,286046996.6,N
1455519816.0,286046996.6,N
1455519835.8,286046996.1,N
1455519855.6,286046991.9,N
1455519875.5,286046994.5,N
1455519895.3,286046997.2,N
1455519915.1,286046996.7,N
1455519935.9,286046995.8,N
1455519955.7,286046993.5,N
1455519975.5,286046992.3,N
1455519995.4,286046992.8,N
1455520015.2,286046990.4,N
1455520035.0,286046992.2,N
1455520035.9,286046992.2,N
1455520055.8,286046994.9,N
1455520075.6,286046994.3,N
1455520095.4,286046992.7,N
1455520115.3,286046995.5,N
1455520135.1,286046997.3,N
1455520136.0,286046997.3,N
1455520155.8,286046996.3,N
1455520175.7,286046996.2,N
1455520195.5,286046998.6,N
1455520215.3,286047003.4,N
1455520235.1,286047003.3,N
1455520255.9,286047004.1,N
1455520275.7,286047003.3,N
1455520295.5,286047007.5,N
1455520315.4,286047004.7,N
1455520335.2,286047005.0,N
1455520355.0,286047007.6,N
1455520355.9,286047007.6,N
1455520375.8,286047010.2,N
1455520395.6,286047008.6,N
1455520415.4,286047003.0,N
1455520435.3,286047004.6,N
1455520455.1,286047009.1,N
1455520456.0,286047009.1,N
1455520475.8,286047010.0,N
1455520495.7,286047009.3,N
1455520515.5,286047013.5,N
1455520535.3,286047015.6,N
1455520555.2,286047015.0,N
1455520575.9,286047012.5,N
1455520595.7,286047015.0,N
1455520615.5,286047019.3,N
1455520635.4,286047020.5,Y
1455520655.2,286047016.6,P
1455520675.1,286047017.9,P
1455520676.0,286047017.9,P
1455520695.8,286047016.8,Y
1455520715.6,286047002.9,P
1455520735.5,286047002.6,N
1455520755.3,286046997.8,N
1455520775.1,286046998.3,N
1455520795.9,286047001.1,N
1455520815.7,286046998.8,N
1455520835.5,286047002.7,N
1455520855.3,286047003.6,N
1455520875.2,286047005.6,N
1455520895.0,286047004.7,N
1455520895.9,286047004.7,N
1455520915.7,286047004.3,N
1455520935.6,286047001.6,N
1455520955.4,286047002.5,N
1455520975.2,286047002.9,N
1455520995.1,286047004.1,N
1455520996.0,286047004.1,N
1455521015.8,286047001.3,N
1455521035.6,286047000.5,N
1455521055.5,286046997.5,N
1455521075.3,286046998.6,N
1455521095.1,286046995.2,N
1455521115.9,286046992.0,N
1455521135.7,286046989.9,N
1455521155.5,286046988.4,N
1455521175.4,286046982.6,Y
1455521195.2,286046978.9,P
1455521215.0,286046976.6,N
1455521215.9,286046976.6,N
1455521235.7,286046973.1,N
1455521255.6,286046972.2,N
1455521275.4,286046970.7,Y
1455521295.2,286046986.9,P
1455521315.1,286046986.2,P
1455521316.0,286046986.2,P
1455521335.8,286046986.3,Y
1455521355.7,286046998.2,P
1455521375.5,286046997.0,N
1455521395.3,286046996.1,N
1455521415.1,286046995.1,N
1455521435.9,286046997.6,N
1455521455.7,286046996.8,N
1455521475.5,286046995.4,N
1455521495.4,286046996.3,N
1455521515.2,286046997.6,N
1455521535.0,286046999.4,N
1455521535.9,286046999.4,N
1455521555.8,286046996.4,N
1455521575.6,286046992.3,N
1455521595.4,286046992.7,N
1455521615.3,286046991.8,N
1455521635.1,286046992.2,N
1455521636.0,286046992.2,N
1455521655.8,286046991.0,N
1455521675.7,286046994.2,N
1455521695.5,286046991.8,N
1455521715.3,286046992.4,N
1455521735.2,286046990.3,N
1455521755.9,286046991.9,N
1455521775.7,286046990.3,N
1455521795.6,286046989.3,Y
1455521815.4,286046996.4,P
1455521835.2,286046993.3,P
1455521855.0,286046995.1,P
1455521856.0,286046995.1,Y
1455521875.8,286047004.2,P
1455521895.6,286047004.0,N
1455521915.5,286047004.9,N
1455521935.3,286047006.8,N
1455521955.1,286047005.3,N
1455521975.8,286047004.7,N
1455521995.7,286047005.9,N
1455522015.5,286047008.5,N
1455522035.3,286047010.7,N
1455522055.2,286047009.6,N
1455522075.9,286047009.1,N
1455522095.7,286047006.0,N
1455522115.6,286047006.1,N
1455522135.4,286047010.1,N
1455522155.2,286047011.6,Y
1455522175.1,286047007.3,P
1455522176.0,286047007.3,P
1455522195.8,286047003.0,P
1455522215.6,286047007.3,Y
1455522235.5,286047000.2,P
1455522255.3,286047004.0,N
1455522275.1,286047003.6,N
1455522295.9,286047003.5,N
1455522315.7,286047004.9,N
1455522335.5,286047003.9,N
1455522355.4,286047003.3,N
1455522375.2,286047004.8,Y
1455522395.0,286047000.8,P
1455522395.9,286047000.8,N
1455522415.8,286047000.4,N
1455522435.6,286047000.8,N
1455522455.4,286047003.4,N
1455522475.3,286047005.6,Y
1455522495.1,286047005.2,P
1455522496.0,286047005.2,N
1455522515.8,286047005.8,P
1455522535.7,286047007.1,Y
1455522555.5,286047002.4,P
1455522575.3,286047004.2,P
1455522595.2,286047001.9,N
1455522615.9,286047000.1,N
1455522635.7,286047002.8,N
1455522655.6,286046999.0,N
1455522675.4,286046997.0,N
1455522695.2,286047001.6,N
1455522715.0,286047001.8,N
1455522716.0,286047001.8,N
1455522735.8,286046998.7,N
1455522755.6,286046998.9,N
1455522775.4,286046997.3,N
1455522795.3,286046999.8,N
1455522815.1,286046999.2,N
1455522835.8,286046996.0,N
1455522855.7,286046993.3,N
1455522875.5,286046993.3,N
1455522895.3,286046993.4,N
1455522915.2,286046994.7,N
1455522935.9,286046993.9,N
1455522955.7,286046994.3,N
1455522975.6,286046992.8,N
1455522995.4,286046990.1,N
1455523015.2,286046992.6,N
1455523035.0,286046991.9,N
1455523036.0,286046991.9,N
1455523055.8,286046990.4,N
1455523075.6,286046994.8,N
1455523095.4,286046991.8,N
1455523115.3,286046992.6,N
1455523135.1,286046992.0,N
1455523155.8,286046992.6,N
1455523175.7,286046994.3,N
1455523195.5,286046994.6,N
1455519615.3,286046993.4,N
1455519635.1,286046994.1,N
1455519655.9,286046992.5,N
1455519675.7,286046996.4,N
1455519695.5,286046992.1,N
1455519715.3,286046990.8,N
1455519735.2,286046992.5,N
1455519755.0,286046992.8,N
1455519755.9,286046992.8,N
1455519775.8,286046990.5,Y
1455519795.6,286046992.6,P
1455519815.4,286046991.3,P
1455519835.2,286046992.7,P
1455519855.1,286046986.9,Y
1455519856.0,286046986.9,P
1455519875.8,286046990.5,N
1455519895.7,286046991.0,P
1455519915.5,286046989.1,Y
1455519935.3,286047000.0,P
1455519955.2,286046999.0,N
1455519975.9,286046998.9,N
1455519995.7,286046995.9,N
1455520015.5,286046996.4,N
1455520035.4,286046995.8,N
1455520055.2,286046997.8,N
1455520075.0,286046993.4,N
1455520075.9,286046993.4,N
1455520095.8,286046994.0,N
1455520115.6,286046993.9,N
1455520135.4,286046994.5,N
1455520155.3,286046994.2,N
1455520175.1,286046996.1,N
1455520176.0,286046996.1,N
1455520195.8,286046995.9,N
1455520215.7,286046995.5,N
1455520235.5,286046997.7,N
1455520255.3,286046994.2,N
1455520275.2,286046992.9,Y
1455520295.9,286046996.3,P
1455520315.7,286046996.1,P
1455520335.6,286046997.6,P
1455520355.4,286046993.3,Y
1455520375.2,286046996.2,P
1455520395.1,286046993.8,P
1455520396.0,286046993.8,P
1455520415.8,286046997.5,N
1455520435.6,286046998.5,N
1455520455.5,286046998.6,N
1455520475.3,286046996.6,N
1455520495.1,286046996.7,N
1455520515.9,286046994.2,Y
1455520535.7,286046994.9,P
1455520555.5,286046997.1,P
1455520575.3,286046995.3,P
1455520595.2,286047000.1,N
1455520615.0,286047003.0,N
1455520615.9,286047003.0,N
1455520635.7,286047007.5,N
1455520655.6,286047003.1,N
1455520675.4,286047003.0,N
1455520695.2,286047003.9,N
1455520715.1,286047003.3,N
1455520716.0,286047003.3,N
1455520735.8,286047003.6,N
1455520755.6,286047002.1,N
1455520775.5,286047002.3,N
1455520795.3,286047000.6,N
1455520815.1,286046998.7,N
1455520835.9,286046999.9,N
1455520855.7,286047000.1,N
1455520875.5,286047001.8,N
1455520895.4,286047001.9,N
1455520915.2,286047003.2,N
1455520935.0,286047003.1,N
1455520935.9,286047003.1,N
1455520955.7,286047003.1,N
1455520975.6,286047003.1,N
1455520995.4,286047005.2,N
1455521015.2,286047010.7,Y
1455521035.1,286047008.3,P
1455521036.0,286047008.3,N
1455521055.8,286047006.4,N
1455521075.6,286047006.1,N
1455521095.5,286047010.3,Y
1455521115.3,286047001.8,P
1455521135.1,286047001.3,N
1455521155.9,286047005.0,N
1455521175.7,286047009.2,Y
1455521195.5,286047007.3,P
1455521215.4,286047006.5,P
1455521235.2,286047010.7,P
1455521255.0,286047009.2,Y
1455521256.0,286047009.2,P
1455521275.8,286047000.8,N
1455521295.6,286046999.4,N
1455521315.4,286046999.1,N
1455521335.3,286047000.2,N
1455521355.1,286047001.4,N
1455521375.8,286047003.8,N
1455521395.7,286047003.2,N
1455521415.5,286047001.3,N
1455521435.3,286047007.4,N
1455521455.2,286047007.9,N
1455521475.9,286047010.5,Y
1455521495.7,286047006.7,P
1455521515.6,286047008.8,P
1455521535.4,286047008.1,P
1455521555.2,286047007.9,Y
1455521575.1,286047001.8,P
1455521576.0,286047001.8,N
1455521595.8,286046997.0,N
1455521615.6,286046998.6,N
1455521635.5,286046999.8,N
1455521655.3,286046998.4,N
1455521675.1,286046998.1,N
1455521695.9,286047001.1,N
1455521715.7,286046999.1,N
1455521735.5,286046997.0,N
1455521755.3,286046996.5,N
1455521775.2,286046996.2,N
1455521795.0,286046996.4,N
1455521795.9,286046996.4,N
1455521815.7,286046996.1,N
1455521835.6,286046995.4,N
1455521855.4,286046995.8,N
1455521875.2,286046995.2,N
1455521895.1,286046993.9,N
1455521896.0,286046993.9,N
1455521915.8,286046994.3,N
1455521935.6,286046994.2,N
1455521955.5,286046992.9,N
1455521975.3,286046988.7,Y
1455521995.1,286046992.6,P
1455522015.9,286046991.3,P
1455522035.7,286046992.8,N
1455522055.5,286046990.8,Y
1455522075.4,286046997.2,P
1455522095.2,286046999.9,N
1455522115.0,286047000.8,N
1455522115.9,286047000.8,N
1455522135.8,286046996.6,N
1455522155.6,286047002.8,N
1455522175.4,286047000.9,N
1455522195.3,286047000.8,N
1455522215.1,286046999.7,N
1455522216.0,286046999.7,N
1455522235.8,286047001.2,N
1455522255.7,286046998.5,N
1455522275.5,286047000.4,N
1455522295.3,286047000.2,N
1455522315.1,286046996.5,N
1455522335.9,286046995.4,N
1455522355.7,286046996.7,N
1455522375.5,286046997.3,N
1455522395.4,286046997.6,N
1455522415.2,286046997.6,N
1455522435.0,286046997.8,N
1455522435.9,286046997.8,N
1455522455.8,286046998.7,N
1455522475.6,286046999.8,N
1455522495.4,286047002.7,N
1455522515.3,286047002.5,N
1455522535.1,286047003.0,N
1455522536.0,286047003.0,N
1455522555.8,286047002.2,N
1455522575.7,286046999.7,N
1455522595.5,286046998.1,N
1455522615.3,286046998.7,N
1455522635.1,286047000.7,N
1455522655.9,286046999.7,N
1455522675.7,286047000.4,N
1455522695.5,286047000.6,N
1455522715.4,286046999.9,N
1455522735.2,286047001.7,N
1455522755.0,286047001.9,N
1455522755.9,286047001.9,N
1455522775.8,286047000.9,N
1455522795.6,286047002.2,N
1455522815.4,286047002.9,N
1455522835.3,286047003.3,N
1455522855.1,286047007.4,Y
1455522875.8,286047006.9,P
1455522895.7,286047007.6,N
1455522915.5,286047008.9,N
1455522935.3,286047008.5,N
1455522955.2,286047010.8,Y
1455522975.9,286047000.7,P
1455522995.7,286046998.9,N
1455523015.6,286046998.3,N
1455523035.4,286046998.5,N
1455523055.2,286047002.7,N
1455523075.0,286047002.8,N
1455523076.0,286047002.8,N
1455523095.8,286047000.3,N
1455523115.6,286047002.1,N
1455523135.4,286047005.5,N
1455523155.3,286047006.6,N
1455523175.1,286047007.2,N
1455523195.8,286047005.4,N
